LNR790I LFPG-ZSPD

Flight info

Callsign LNR790I
Flight time N/A
Altitude 33000
Route LANVI6H/08L LANVI DCT LUPEN UM164 UTABA DCT INPUL DCT VATET DCT MOPUG/N0466F350 DCT ASNEL DCT UDROS DCT ABSAX DCT REBLO DCT MATAL T916 LEYLA N161 GASBI/K0861F350 N161 DIVNO/K0865F370 N161 SARIN/K0848S1130 A368 FKG W188 LIKMI DCT DKO/K0841S1190 W69 HUR B339 SOTMU/K0856S1160 W98 ELKUR W40 DOXAB/K0850S1190 W40 YQG/K0852S1160 W142 DALIM/K0848S1190 A593 DPX A470 DALNU W166 ZJ W167 SASAN SAS93A
Aircraft A346/H-SDE2E3FGHIJ3J4J5M1RWXY/LB1D1

Departure

Time 2026-05-07 21:07
Airport Charles de Gaulle International Airport (LFPG)

Arrival

Time N/A
Airport Shanghai Pudong International Airport (ZSPD)
Time Latitude Longitude Altitude Speed Heading
2026-05-07 20:57 49.00180 2.56740 369 ft 0 kts 355°
2026-05-07 20:58 49.00169 2.56741 363 ft 0 kts 355°
2026-05-07 20:59 49.00143 2.56744 364 ft 0 kts 355°
2026-05-07 20:59 49.00130 2.56746 368 ft 0 kts 355°
2026-05-07 21:00 49.00127 2.56746 363 ft 0 kts 355°
2026-05-07 21:00 49.00104 2.56749 363 ft 0 kts 355°
2026-05-07 21:00 49.00097 2.56750 365 ft 0 kts 355°
2026-05-07 21:02 49.00104 2.56747 363 ft 5 kts 340°
2026-05-07 21:02 49.00112 2.56703 365 ft 6 kts 274°
2026-05-07 21:03 49.00111 2.56630 363 ft 7 kts 263°
2026-05-07 21:03 49.00081 2.56566 367 ft 8 kts 202°
2026-05-07 21:03 49.00022 2.56570 367 ft 9 kts 172°
2026-05-07 21:03 48.99952 2.56583 365 ft 11 kts 176°
2026-05-07 21:04 48.99873 2.56587 362 ft 12 kts 188°
2026-05-07 21:04 48.99826 2.56502 366 ft 12 kts 265°
2026-05-07 21:04 48.99821 2.56369 362 ft 13 kts 266°
2026-05-07 21:04 48.99810 2.56224 367 ft 14 kts 263°
2026-05-07 21:05 48.99793 2.56077 368 ft 14 kts 236°
2026-05-07 21:05 48.99741 2.56037 370 ft 0 kts 185°
2026-05-07 21:05 48.99734 2.56036 369 ft 2 kts 184°
2026-05-07 21:05 48.99708 2.56037 369 ft 7 kts 178°
2026-05-07 21:06 48.99647 2.56042 364 ft 8 kts 163°
2026-05-07 21:06 48.99621 2.56108 367 ft 7 kts 109°
2026-05-07 21:06 48.99619 2.56185 366 ft 9 kts 86°
2026-05-07 21:06 48.99642 2.56631 370 ft 77 kts 85°
2026-05-07 21:07 48.99704 2.57790 368 ft 139 kts 85°
2026-05-07 21:07 48.99799 2.59535 370 ft 189 kts 85°
2026-05-07 21:07 48.99903 2.61650 819 ft 203 kts 85°
2026-05-07 21:07 48.99995 2.63816 1603 ft 207 kts 87°
2026-05-07 21:08 49.00078 2.66021 2357 ft 208 kts 87°
2026-05-07 21:08 49.00182 2.68261 2867 ft 216 kts 86°
2026-05-07 21:08 49.00303 2.70613 3230 ft 230 kts 86°
2026-05-07 21:08 49.00435 2.73149 3492 ft 250 kts 86°
2026-05-07 21:09 49.00569 2.75859 3921 ft 261 kts 85°
2026-05-07 21:09 49.00695 2.78636 4593 ft 263 kts 89°
2026-05-07 21:09 49.00611 2.81434 5243 ft 266 kts 97°
2026-05-07 21:09 49.00316 2.84249 5848 ft 270 kts 100°
2026-05-07 21:10 48.99963 2.87080 6445 ft 275 kts 101°
2026-05-07 21:10 48.99593 2.89964 7035 ft 278 kts 101°
2026-05-07 21:10 48.99221 2.92870 7622 ft 281 kts 101°
2026-05-07 21:10 48.98845 2.95819 8194 ft 285 kts 101°
2026-05-07 21:11 48.98546 2.98841 8760 ft 290 kts 98°
2026-05-07 21:11 48.98290 3.01922 9324 ft 294 kts 98°
2026-05-07 21:11 48.97777 3.08207 10358 ft 304 kts 98°
2026-05-07 21:12 48.97505 3.11474 10627 ft 317 kts 98°
2026-05-07 21:12 48.97219 3.14889 10865 ft 331 kts 98°
2026-05-07 21:12 48.96924 3.18407 11168 ft 341 kts 98°
2026-05-07 21:12 48.96621 3.22015 11683 ft 345 kts 98°
2026-05-07 21:13 48.96316 3.25649 12242 ft 346 kts 98°
2026-05-07 21:13 48.96011 3.29252 12799 ft 348 kts 98°
2026-05-07 21:13 48.95695 3.32976 13344 ft 351 kts 98°
2026-05-07 21:13 48.95379 3.36682 13891 ft 354 kts 98°
2026-05-07 21:14 48.95058 3.40423 14365 ft 356 kts 98°
2026-05-07 21:14 48.94739 3.44128 14826 ft 359 kts 98°
2026-05-07 21:14 48.94411 3.47921 15292 ft 362 kts 98°
2026-05-07 21:14 48.94080 3.51735 15745 ft 364 kts 98°
2026-05-07 21:15 48.93767 3.55594 16119 ft 372 kts 96°
2026-05-07 21:15 48.93542 3.59579 16336 ft 384 kts 95°
2026-05-07 21:15 48.93325 3.63752 16565 ft 396 kts 95°
2026-05-07 21:15 48.93109 3.67943 16782 ft 407 kts 95°
2026-05-07 21:16 48.92880 3.72314 16998 ft 418 kts 95°
2026-05-07 21:16 48.92645 3.76763 17367 ft 425 kts 95°
2026-05-07 21:16 48.92404 3.81256 17892 ft 427 kts 95°
2026-05-07 21:16 48.92158 3.85790 18411 ft 430 kts 95°
2026-05-07 21:17 48.91910 3.90349 18850 ft 433 kts 95°
2026-05-07 21:17 48.91658 3.94933 19286 ft 436 kts 95°
2026-05-07 21:17 48.91402 3.99541 19738 ft 439 kts 95°
2026-05-07 21:17 48.91142 4.04194 20183 ft 441 kts 95°
2026-05-07 21:18 48.90878 4.08866 20631 ft 444 kts 95°
2026-05-07 21:18 48.90611 4.13556 21061 ft 447 kts 95°
2026-05-07 21:18 48.90293 4.18272 21472 ft 449 kts 99°
2026-05-07 21:18 48.89586 4.22906 21890 ft 451 kts 109°
2026-05-07 21:19 48.88428 4.27348 22318 ft 452 kts 117°
2026-05-07 21:19 48.86948 4.31570 22752 ft 453 kts 120°
2026-05-07 21:19 48.85396 4.35763 23164 ft 456 kts 121°
2026-05-07 21:19 48.83824 4.39975 23553 ft 459 kts 121°
2026-05-07 21:20 48.82249 4.44208 23906 ft 461 kts 121°
2026-05-07 21:20 48.80672 4.48462 24243 ft 464 kts 121°
2026-05-07 21:20 48.79088 4.52748 24583 ft 466 kts 121°
2026-05-07 21:20 48.77499 4.57048 24915 ft 468 kts 121°
2026-05-07 21:21 48.75904 4.61363 25246 ft 470 kts 121°
2026-05-07 21:21 48.74299 4.65700 25581 ft 472 kts 121°
2026-05-07 21:21 48.72702 4.70010 25910 ft 474 kts 121°
2026-05-07 21:21 48.71082 4.74377 26245 ft 476 kts 121°
2026-05-07 21:22 48.69451 4.78765 26541 ft 478 kts 121°
2026-05-07 21:22 48.67813 4.83163 26846 ft 481 kts 121°
2026-05-07 21:22 48.66274 4.87290 27149 ft 482 kts 121°
2026-05-07 21:22 48.64619 4.91722 27460 ft 484 kts 121°
2026-05-07 21:23 48.62962 4.96153 27873 ft 484 kts 121°
2026-05-07 21:23 48.61298 5.00596 28346 ft 482 kts 121°
2026-05-07 21:23 48.59646 5.04997 28821 ft 481 kts 121°
2026-05-07 21:23 48.57995 5.09389 29264 ft 480 kts 121°
2026-05-07 21:24 48.56347 5.13767 29681 ft 479 kts 121°
2026-05-07 21:24 48.54701 5.18129 30101 ft 478 kts 122°
2026-05-07 21:24 48.53051 5.22493 30437 ft 477 kts 122°
2026-05-07 21:24 48.51405 5.26843 30738 ft 478 kts 122°
2026-05-07 21:25 48.49750 5.31209 30980 ft 479 kts 122°
2026-05-07 21:25 48.48093 5.35572 31271 ft 479 kts 122°
2026-05-07 21:25 48.46434 5.39935 31554 ft 480 kts 122°
2026-05-07 21:25 48.44769 5.44303 31806 ft 481 kts 122°
2026-05-07 21:26 48.43097 5.48684 32026 ft 482 kts 122°
2026-05-07 21:26 48.41418 5.53077 32269 ft 484 kts 122°
2026-05-07 21:26 48.39730 5.57485 32498 ft 485 kts 122°
2026-05-07 21:26 48.38039 5.61890 32730 ft 486 kts 122°
2026-05-07 21:27 48.36347 5.66306 32964 ft 487 kts 121°
2026-05-07 21:27 48.34827 5.70885 33064 ft 491 kts 115°
2026-05-07 21:27 48.32739 5.80689 33070 ft 494 kts 103°
2026-05-07 21:28 48.32037 5.90978 33075 ft 496 kts 90°
2026-05-07 21:28 48.32573 6.01361 33077 ft 496 kts 84°
2026-05-07 21:29 48.33345 6.11600 33076 ft 495 kts 84°
2026-05-07 21:29 48.34090 6.21926 33074 ft 495 kts 84°
2026-05-07 21:30 48.34804 6.32253 33071 ft 495 kts 84°
2026-05-07 21:30 48.35502 6.42588 33068 ft 495 kts 84°
2026-05-07 21:31 48.36188 6.52918 33062 ft 495 kts 84°
2026-05-07 21:31 48.36866 6.63250 33061 ft 495 kts 85°
2026-05-07 21:32 48.37535 6.73585 33067 ft 496 kts 85°
2026-05-07 21:32 48.38194 6.83922 33066 ft 495 kts 85°
2026-05-07 21:33 48.38843 6.94265 33068 ft 496 kts 85°
2026-05-07 21:33 48.39483 7.04611 33071 ft 496 kts 85°
2026-05-07 21:34 48.40117 7.14998 33074 ft 496 kts 85°
2026-05-07 21:34 48.40739 7.25340 33071 ft 496 kts 85°
2026-05-07 21:35 48.41352 7.35700 33066 ft 496 kts 85°
2026-05-07 21:35 48.41955 7.46055 33078 ft 495 kts 85°
2026-05-07 21:36 48.42547 7.56390 33076 ft 495 kts 85°
2026-05-07 21:36 48.43081 7.66748 33074 ft 495 kts 88°
2026-05-07 21:37 48.42996 7.77105 33075 ft 494 kts 95°
2026-05-07 21:37 48.42166 7.87408 33076 ft 496 kts 99°
2026-05-07 21:38 48.41135 7.97682 33075 ft 495 kts 99°
2026-05-07 21:38 48.40103 8.07972 33077 ft 496 kts 99°
2026-05-07 21:39 48.39074 8.18240 33077 ft 496 kts 99°
2026-05-07 21:39 48.38040 8.28494 33083 ft 495 kts 99°
2026-05-07 21:40 48.36996 8.38766 33083 ft 496 kts 99°
2026-05-07 21:40 48.35950 8.48960 33084 ft 496 kts 99°
2026-05-07 21:41 48.34887 8.59222 33085 ft 496 kts 100°
2026-05-07 21:41 48.33815 8.69479 33084 ft 496 kts 100°
2026-05-07 21:42 48.32734 8.79736 33085 ft 497 kts 100°
2026-05-07 21:42 48.31816 8.88373 33086 ft 497 kts 100°
2026-05-07 21:43 48.30538 9.00296 33084 ft 497 kts 100°
2026-05-07 21:43 48.29608 9.08889 33082 ft 497 kts 100°
2026-05-07 21:44 48.28490 9.19149 33079 ft 497 kts 100°
2026-05-07 21:44 48.27364 9.29413 33080 ft 498 kts 100°
2026-05-07 21:45 48.26223 9.39684 33083 ft 498 kts 101°
2026-05-07 21:45 48.25074 9.49950 33077 ft 499 kts 100°
2026-05-07 21:46 48.23920 9.60250 33077 ft 500 kts 100°
2026-05-07 21:46 48.22757 9.70561 33077 ft 500 kts 101°
2026-05-07 21:47 48.21581 9.80885 33074 ft 500 kts 101°
2026-05-07 21:47 48.20401 9.91145 33076 ft 500 kts 101°
2026-05-07 21:48 48.19205 10.01460 33078 ft 501 kts 101°
2026-05-07 21:48 48.18000 10.11784 33074 ft 501 kts 101°
2026-05-07 21:49 48.16789 10.22072 33075 ft 501 kts 101°
2026-05-07 21:49 48.15575 10.32300 33077 ft 502 kts 101°
2026-05-07 21:50 48.14331 10.42690 33084 ft 503 kts 101°
2026-05-07 21:50 48.13086 10.53016 33089 ft 503 kts 101°
2026-05-07 21:51 48.11831 10.63343 33096 ft 503 kts 101°
2026-05-07 21:51 48.10567 10.73655 33098 ft 503 kts 101°
2026-05-07 21:52 48.09289 10.83999 33102 ft 504 kts 101°
2026-05-07 21:52 48.08003 10.94336 33100 ft 504 kts 101°
2026-05-07 21:53 48.06712 11.04636 33095 ft 504 kts 101°
2026-05-07 21:53 48.05405 11.14981 33091 ft 504 kts 101°
2026-05-07 21:54 48.04089 11.25320 33102 ft 504 kts 101°
2026-05-07 21:54 48.02766 11.35633 33103 ft 504 kts 102°
2026-05-07 21:55 48.01431 11.45956 33098 ft 505 kts 102°
2026-05-07 21:55 48.00088 11.56277 33095 ft 505 kts 102°
2026-05-07 21:56 47.98733 11.66610 33085 ft 505 kts 102°
2026-05-07 21:56 47.97369 11.76930 33080 ft 505 kts 102°
2026-05-07 21:57 47.95998 11.87225 33079 ft 505 kts 102°
2026-05-07 21:57 47.94616 11.97537 33077 ft 506 kts 102°
2026-05-07 21:58 47.93219 12.07883 33083 ft 506 kts 102°
2026-05-07 21:58 47.91810 12.18238 33088 ft 506 kts 102°
2026-05-07 21:59 47.90392 12.28588 33095 ft 506 kts 102°
2026-05-07 21:59 47.88974 12.38874 33094 ft 506 kts 103°
2026-05-07 22:00 47.87543 12.49172 33101 ft 506 kts 103°
2026-05-07 22:00 47.86103 12.59466 33101 ft 506 kts 103°
2026-05-07 22:01 47.84656 12.69725 33098 ft 506 kts 103°
2026-05-07 22:01 47.83013 12.79937 33103 ft 506 kts 106°
2026-05-07 22:02 47.81198 12.89991 33102 ft 506 kts 107°
2026-05-07 22:02 47.79347 13.00172 33102 ft 506 kts 107°
2026-05-07 22:03 47.77399 13.10861 33100 ft 505 kts 107°
2026-05-07 22:03 47.75551 13.20962 33110 ft 506 kts 107°
2026-05-07 22:04 47.73706 13.30985 33108 ft 506 kts 107°
2026-05-07 22:04 47.71840 13.41065 33106 ft 506 kts 107°
2026-05-07 22:05 47.69964 13.51147 33105 ft 506 kts 107°
2026-05-07 22:05 47.68081 13.61220 33107 ft 507 kts 107°
2026-05-07 22:06 47.66188 13.71286 33108 ft 507 kts 107°
2026-05-07 22:06 47.64285 13.81347 33109 ft 507 kts 107°
2026-05-07 22:07 47.62367 13.91439 33110 ft 507 kts 107°
2026-05-07 22:07 47.60443 14.01504 33108 ft 507 kts 108°
2026-05-07 22:08 47.58569 14.11589 33109 ft 507 kts 107°
2026-05-07 22:08 47.57048 14.19996 33110 ft 506 kts 107°
2026-05-07 22:09 47.54912 14.31712 33108 ft 507 kts 107°
2026-05-07 22:09 47.53058 14.41784 33110 ft 506 kts 107°
2026-05-07 22:10 47.51493 14.50234 33098 ft 506 kts 107°
2026-05-07 22:10 47.49613 14.60324 33101 ft 510 kts 107°
2026-05-07 22:11 47.47733 14.70363 33102 ft 510 kts 107°
2026-05-07 22:11 47.45831 14.80482 33095 ft 508 kts 108°
2026-05-07 22:12 47.43929 14.90528 33100 ft 508 kts 108°
2026-05-07 22:12 47.42021 15.00549 33110 ft 508 kts 108°
2026-05-07 22:13 47.40092 15.10629 33116 ft 508 kts 108°
2026-05-07 22:13 47.38167 15.20660 33101 ft 507 kts 108°
2026-05-07 22:14 47.36230 15.30672 33104 ft 508 kts 108°
2026-05-07 22:14 47.34278 15.40707 33097 ft 508 kts 108°
2026-05-07 22:15 47.32322 15.50723 33093 ft 508 kts 108°
2026-05-07 22:15 47.30360 15.60732 33088 ft 506 kts 109°
2026-05-07 22:16 47.28402 15.70643 33094 ft 506 kts 109°
2026-05-07 22:16 47.26424 15.80612 33088 ft 506 kts 109°
2026-05-07 22:17 47.24441 15.90552 33059 ft 506 kts 109°
2026-05-07 22:17 47.22448 16.00519 33078 ft 507 kts 110°
2026-05-07 22:18 47.19427 16.15480 33080 ft 508 kts 110°
2026-05-07 22:19 47.17405 16.25437 33078 ft 507 kts 110°
2026-05-07 22:19 47.15383 16.35344 33080 ft 507 kts 110°
2026-05-07 22:20 47.13344 16.45292 33070 ft 507 kts 110°
2026-05-07 22:20 47.11297 16.55228 33070 ft 507 kts 110°
2026-05-07 22:21 47.09243 16.65147 33067 ft 507 kts 110°
2026-05-07 22:21 47.07192 16.75053 33068 ft 505 kts 111°
2026-05-07 22:22 47.05129 16.84897 33058 ft 505 kts 111°
2026-05-07 22:22 47.03069 16.94683 33062 ft 505 kts 111°
2026-05-07 22:23 47.00982 17.04559 33065 ft 505 kts 111°
2026-05-07 22:23 46.98887 17.14463 33056 ft 505 kts 112°
2026-05-07 22:24 46.96788 17.24293 33064 ft 505 kts 112°
2026-05-07 22:24 46.94679 17.34130 33061 ft 505 kts 112°
2026-05-07 22:25 46.92565 17.43947 33024 ft 505 kts 112°
2026-05-07 22:25 46.90451 17.53737 33059 ft 503 kts 113°
2026-05-07 22:26 46.88328 17.63498 33044 ft 503 kts 113°
2026-05-07 22:26 46.86199 17.73241 33060 ft 503 kts 113°
2026-05-07 22:27 46.84058 17.82998 33023 ft 502 kts 113°
2026-05-07 22:27 46.81941 17.92606 33042 ft 499 kts 113°
2026-05-07 22:28 46.79807 18.02248 33053 ft 499 kts 113°
2026-05-07 22:28 46.77661 18.11895 33053 ft 499 kts 113°
2026-05-07 22:29 46.75507 18.21526 33020 ft 498 kts 113°
2026-05-07 22:29 46.73349 18.31140 33048 ft 498 kts 113°
2026-05-07 22:30 46.71186 18.40744 33052 ft 498 kts 113°
2026-05-07 22:30 46.69017 18.50326 33058 ft 498 kts 113°
2026-05-07 22:31 46.66836 18.59909 33037 ft 496 kts 113°
2026-05-07 22:31 46.64665 18.69414 33045 ft 494 kts 113°
2026-05-07 22:32 46.62488 18.78902 33049 ft 494 kts 113°
2026-05-07 22:32 46.60299 18.88401 33052 ft 494 kts 113°
2026-05-07 22:33 46.58103 18.97876 33048 ft 493 kts 113°
2026-05-07 22:33 46.55903 19.07337 33051 ft 493 kts 113°
2026-05-07 22:34 46.53698 19.16779 33055 ft 493 kts 113°
2026-05-07 22:34 46.51487 19.26207 33052 ft 493 kts 113°
2026-05-07 22:35 46.49263 19.35645 33038 ft 492 kts 113°
2026-05-07 22:35 46.47039 19.45047 33049 ft 492 kts 113°
2026-05-07 22:36 46.44807 19.54445 33053 ft 492 kts 113°
2026-05-07 22:36 46.42585 19.63758 33053 ft 492 kts 113°
2026-05-07 22:37 46.40339 19.73123 33038 ft 490 kts 113°
2026-05-07 22:37 46.38091 19.82472 33050 ft 490 kts 113°
2026-05-07 22:38 46.35840 19.91788 33046 ft 490 kts 113°
2026-05-07 22:38 46.33580 20.01102 33056 ft 490 kts 114°
2026-05-07 22:39 46.31308 20.10425 33053 ft 490 kts 114°
2026-05-07 22:39 46.29033 20.19725 33053 ft 490 kts 114°
2026-05-07 22:40 46.26750 20.29016 33047 ft 490 kts 114°
2026-05-07 22:40 46.24458 20.38304 33025 ft 490 kts 114°
2026-05-07 22:41 46.22166 20.47555 33039 ft 488 kts 114°
2026-05-07 22:41 46.19869 20.56795 33035 ft 488 kts 114°
2026-05-07 22:42 46.17561 20.66030 33037 ft 488 kts 114°
2026-05-07 22:42 46.15253 20.75170 33025 ft 488 kts 114°
2026-05-07 22:43 46.12877 20.84360 33043 ft 491 kts 114°
2026-05-07 22:43 46.11658 20.89057 33184 ft 494 kts 114°
2026-05-07 22:43 46.10453 20.93693 33522 ft 494 kts 114°
2026-05-07 22:43 46.09264 20.98270 33896 ft 492 kts 114°
2026-05-07 22:44 46.08058 21.02903 34237 ft 490 kts 114°
2026-05-07 22:44 46.06860 21.07495 34507 ft 490 kts 114°
2026-05-07 22:44 46.05655 21.12097 34717 ft 490 kts 114°
2026-05-07 22:44 46.04449 21.16698 34925 ft 491 kts 114°
2026-05-07 22:45 46.03240 21.21306 35034 ft 492 kts 114°
2026-05-07 22:45 46.00797 21.30588 35042 ft 492 kts 114°
2026-05-07 22:46 45.98382 21.39730 35045 ft 492 kts 114°
2026-05-07 22:46 45.95937 21.48941 35037 ft 492 kts 114°
2026-05-07 22:47 45.93486 21.58142 35030 ft 493 kts 114°
2026-05-07 22:47 45.91023 21.67358 35041 ft 494 kts 115°
2026-05-07 22:48 45.88548 21.76582 35046 ft 494 kts 115°
2026-05-07 22:48 45.86064 21.85794 35041 ft 494 kts 114°
2026-05-07 22:49 45.83573 21.95008 35050 ft 495 kts 115°
2026-05-07 22:49 45.81074 22.04213 35054 ft 495 kts 115°
2026-05-07 22:50 45.78571 22.13397 35060 ft 495 kts 115°
2026-05-07 22:50 45.76052 22.22594 35059 ft 495 kts 115°
2026-05-07 22:51 45.73543 22.31729 35056 ft 495 kts 115°
2026-05-07 22:51 45.71010 22.40919 35067 ft 496 kts 115°
2026-05-07 22:52 45.68474 22.50082 35058 ft 495 kts 115°
2026-05-07 22:52 45.65919 22.59270 35068 ft 496 kts 115°
2026-05-07 22:53 45.63358 22.68455 35077 ft 496 kts 115°
2026-05-07 22:53 45.60793 22.77621 35078 ft 496 kts 115°
2026-05-07 22:54 45.58219 22.86773 35073 ft 494 kts 115°
2026-05-07 22:54 45.55652 22.95872 35091 ft 492 kts 115°
2026-05-07 22:55 45.53522 23.03400 35087 ft 492 kts 115°
2026-05-07 22:55 45.50513 23.13996 35084 ft 492 kts 115°
2026-05-07 22:56 45.48362 23.21543 35091 ft 492 kts 115°
2026-05-07 22:56 45.45773 23.30593 35106 ft 492 kts 115°
2026-05-07 22:57 45.43181 23.39616 35096 ft 492 kts 115°
2026-05-07 22:57 45.40580 23.48641 35105 ft 491 kts 115°
2026-05-07 22:58 45.37975 23.57648 35107 ft 491 kts 115°
2026-05-07 22:58 45.35364 23.66642 35090 ft 492 kts 115°
2026-05-07 22:59 45.32742 23.75640 35094 ft 492 kts 115°
2026-05-07 22:59 45.30134 23.84556 35084 ft 491 kts 115°
2026-05-07 23:00 45.27508 23.93510 35093 ft 489 kts 115°
2026-05-07 23:00 45.24881 24.02429 35096 ft 489 kts 116°
2026-05-07 23:01 45.22244 24.11349 35092 ft 489 kts 116°
2026-05-07 23:01 45.19597 24.20264 35079 ft 490 kts 115°
2026-05-07 23:02 45.16944 24.29175 35084 ft 490 kts 115°
2026-05-07 23:02 45.14283 24.38086 35081 ft 490 kts 115°
2026-05-07 23:03 45.11618 24.46981 35081 ft 490 kts 116°
2026-05-07 23:03 45.08945 24.55867 35063 ft 488 kts 116°
2026-05-07 23:04 45.06268 24.64727 35073 ft 489 kts 116°
2026-05-07 23:04 45.03587 24.73579 35074 ft 489 kts 116°
2026-05-07 23:05 45.00899 24.82424 35072 ft 489 kts 116°
2026-05-07 23:05 44.98203 24.91262 35070 ft 488 kts 116°
2026-05-07 23:06 44.95508 25.00067 35073 ft 488 kts 116°
2026-05-07 23:06 44.92803 25.08872 35067 ft 488 kts 116°
2026-05-07 23:07 44.90093 25.17661 35049 ft 488 kts 116°
2026-05-07 23:07 44.87377 25.26435 35059 ft 488 kts 116°
2026-05-07 23:08 44.84655 25.35212 35066 ft 488 kts 116°
2026-05-07 23:08 44.81927 25.43973 35058 ft 488 kts 116°
2026-05-07 23:09 44.79191 25.52726 35051 ft 487 kts 116°
2026-05-07 23:09 44.76460 25.61436 35050 ft 486 kts 116°
2026-05-07 23:10 44.73721 25.70146 35048 ft 486 kts 116°
2026-05-07 23:10 44.70977 25.78839 35048 ft 486 kts 116°
2026-05-07 23:11 44.68230 25.87516 35043 ft 484 kts 116°
2026-05-07 23:11 44.65483 25.96158 35047 ft 484 kts 116°
2026-05-07 23:12 44.62734 26.04781 35048 ft 483 kts 116°
2026-05-07 23:12 44.59975 26.13403 35045 ft 483 kts 116°
2026-05-07 23:13 44.57215 26.22006 35047 ft 483 kts 116°
2026-05-07 23:13 44.54446 26.30593 35042 ft 483 kts 117°
2026-05-07 23:14 44.51361 26.38944 35044 ft 481 kts 121°
2026-05-07 23:14 44.48131 26.47167 35036 ft 481 kts 121°
2026-05-07 23:15 44.44894 26.55385 35044 ft 482 kts 121°
2026-05-07 23:15 44.41653 26.63600 35045 ft 482 kts 121°
2026-05-07 23:16 44.38427 26.71755 35048 ft 481 kts 121°
2026-05-07 23:16 44.35178 26.79944 35046 ft 481 kts 121°
2026-05-07 23:17 44.31919 26.88136 35046 ft 481 kts 121°
2026-05-07 23:17 44.28663 26.96296 35048 ft 481 kts 121°
2026-05-07 23:18 44.25396 27.04460 35045 ft 481 kts 121°
2026-05-07 23:18 44.22117 27.12628 35050 ft 482 kts 121°
2026-05-07 23:19 44.18828 27.20803 35048 ft 482 kts 121°
2026-05-07 23:19 44.15536 27.28960 35056 ft 482 kts 121°
2026-05-07 23:20 44.12239 27.37101 35045 ft 483 kts 121°
2026-05-07 23:20 44.08922 27.45269 35060 ft 484 kts 121°
2026-05-07 23:21 44.05604 27.53425 35066 ft 484 kts 121°
2026-05-07 23:21 44.02274 27.61582 35066 ft 484 kts 121°
2026-05-07 23:22 43.98927 27.69747 35071 ft 486 kts 121°
2026-05-07 23:22 43.95576 27.77911 35077 ft 487 kts 121°
2026-05-07 23:23 43.92215 27.86075 35084 ft 486 kts 121°
2026-05-07 23:23 43.88849 27.94225 35076 ft 487 kts 121°
2026-05-07 23:24 43.85474 28.02370 35094 ft 488 kts 121°
2026-05-07 23:24 43.82083 28.10538 35098 ft 488 kts 121°
2026-05-07 23:25 43.78690 28.18687 35097 ft 488 kts 121°
2026-05-07 23:25 43.75284 28.26829 35099 ft 489 kts 121°
2026-05-07 23:26 43.71875 28.34979 35104 ft 489 kts 121°
2026-05-07 23:26 43.68458 28.43115 35107 ft 489 kts 121°
2026-05-07 23:27 43.63320 28.55289 35123 ft 490 kts 121°
2026-05-07 23:27 43.59884 28.63413 35121 ft 490 kts 121°
2026-05-07 23:28 43.56442 28.71533 35119 ft 490 kts 121°
2026-05-07 23:28 43.52990 28.79644 35124 ft 490 kts 121°
2026-05-07 23:29 43.49518 28.87776 35121 ft 492 kts 121°
2026-05-07 23:29 43.46041 28.95908 35126 ft 492 kts 121°
2026-05-07 23:30 43.42561 29.04021 35124 ft 492 kts 121°
2026-05-07 23:30 43.39090 29.12083 35129 ft 494 kts 121°
2026-05-07 23:31 43.35581 29.20218 35125 ft 494 kts 121°
2026-05-07 23:31 43.32038 29.28409 35126 ft 494 kts 121°
2026-05-07 23:32 43.28541 29.36467 35127 ft 495 kts 121°
2026-05-07 23:32 43.25000 29.44603 35124 ft 496 kts 121°
2026-05-07 23:33 43.21456 29.52730 35124 ft 496 kts 121°
2026-05-07 23:33 43.17904 29.60852 35124 ft 496 kts 121°
2026-05-07 23:34 43.14291 29.69090 35126 ft 495 kts 121°
2026-05-07 23:34 43.10734 29.77175 35126 ft 495 kts 121°
2026-05-07 23:35 43.07172 29.85246 35130 ft 495 kts 121°
2026-05-07 23:35 43.03588 29.93338 35124 ft 496 kts 121°
2026-05-07 23:36 43.00632 30.00006 35123 ft 497 kts 121°
2026-05-07 23:36 42.97005 30.08166 35120 ft 497 kts 121°
2026-05-07 23:37 42.93405 30.16242 35124 ft 497 kts 121°
2026-05-07 23:37 42.89793 30.24311 35126 ft 499 kts 121°
2026-05-07 23:38 42.86173 30.32393 35123 ft 499 kts 121°
2026-05-07 23:38 42.82541 30.40473 35133 ft 499 kts 121°
2026-05-07 23:39 42.78901 30.48536 35126 ft 500 kts 121°
2026-05-07 23:39 42.75527 30.56815 35129 ft 499 kts 114°
2026-05-07 23:40 42.72864 30.65521 35127 ft 497 kts 107°
2026-05-07 23:40 42.70914 30.74544 35138 ft 496 kts 102°
2026-05-07 23:41 42.69156 30.83650 35132 ft 497 kts 102°
2026-05-07 23:41 42.67381 30.92762 35130 ft 497 kts 102°
2026-05-07 23:42 42.65591 31.01851 35130 ft 497 kts 103°
2026-05-07 23:42 42.63789 31.10926 35133 ft 497 kts 102°
2026-05-07 23:43 42.61983 31.19988 35131 ft 497 kts 102°
2026-05-07 23:43 42.60168 31.29053 35130 ft 497 kts 103°
2026-05-07 23:44 42.58347 31.38106 35130 ft 497 kts 103°
2026-05-07 23:44 42.56515 31.47153 35133 ft 496 kts 102°
2026-05-07 23:45 42.54680 31.56197 35131 ft 496 kts 102°
2026-05-07 23:45 42.52841 31.65221 35127 ft 496 kts 102°
2026-05-07 23:46 42.51004 31.74183 35138 ft 496 kts 102°
2026-05-07 23:46 42.49135 31.83269 35132 ft 496 kts 102°
2026-05-07 23:47 42.47275 31.92270 35126 ft 496 kts 102°
2026-05-07 23:47 42.45407 32.01275 35130 ft 496 kts 103°
2026-05-07 23:48 42.43529 32.10267 35141 ft 495 kts 102°
2026-05-07 23:48 42.41652 32.19237 35130 ft 495 kts 102°
2026-05-07 23:49 42.39780 32.28149 35129 ft 495 kts 102°
2026-05-07 23:49 42.37889 32.37100 35142 ft 495 kts 103°
2026-05-07 23:50 42.35990 32.46054 35128 ft 494 kts 103°
2026-05-07 23:50 42.34132 32.55014 35123 ft 493 kts 100°
2026-05-07 23:51 42.32856 32.64103 35125 ft 490 kts 94°
2026-05-07 23:51 42.32070 32.73257 35126 ft 489 kts 92°
2026-05-07 23:52 42.31304 32.82400 35126 ft 489 kts 92°
2026-05-07 23:52 42.30519 32.91568 35125 ft 490 kts 93°
2026-05-07 23:53 42.29716 33.00798 35124 ft 489 kts 93°
2026-05-07 23:53 42.28912 33.09937 35130 ft 489 kts 93°
2026-05-07 23:54 42.28100 33.19070 35119 ft 489 kts 93°
2026-05-07 23:54 42.27279 33.28202 35125 ft 489 kts 93°
2026-05-07 23:55 42.26455 33.37320 35132 ft 489 kts 93°
2026-05-07 23:55 42.25621 33.46445 35135 ft 489 kts 93°
2026-05-07 23:56 42.24780 33.55562 35129 ft 489 kts 93°
2026-05-07 23:56 42.23934 33.64680 35132 ft 489 kts 93°
2026-05-07 23:57 42.23078 33.73804 35127 ft 489 kts 93°
2026-05-07 23:57 42.22221 33.82873 35140 ft 489 kts 93°
2026-05-07 23:58 42.21352 33.91984 35131 ft 489 kts 93°
2026-05-07 23:58 42.20472 34.01121 35128 ft 489 kts 93°
2026-05-07 23:59 42.19590 34.10204 35133 ft 489 kts 93°
2026-05-07 23:59 42.18700 34.19316 35145 ft 488 kts 94°
2026-05-08 00:00 42.17804 34.28400 35136 ft 488 kts 94°
2026-05-08 00:00 42.16898 34.37485 35135 ft 488 kts 94°
2026-05-08 00:01 42.15988 34.46554 35136 ft 488 kts 94°
2026-05-08 00:01 42.15070 34.55628 35133 ft 488 kts 94°
2026-05-08 00:02 42.14148 34.64687 35145 ft 487 kts 94°
2026-05-08 00:02 42.13218 34.73731 35141 ft 486 kts 94°
2026-05-08 00:03 42.12287 34.82710 35140 ft 486 kts 95°
2026-05-08 00:03 42.11342 34.91759 35146 ft 486 kts 95°
2026-05-08 00:04 42.10395 35.00787 35156 ft 484 kts 95°
2026-05-08 00:04 42.09443 35.09751 35148 ft 482 kts 95°
2026-05-08 00:05 42.08485 35.18705 35150 ft 482 kts 95°
2026-05-08 00:05 42.07520 35.27660 35150 ft 482 kts 95°
2026-05-08 00:06 42.06558 35.36540 35157 ft 481 kts 95°
2026-05-08 00:06 42.05583 35.45463 35157 ft 481 kts 95°
2026-05-08 00:07 42.04600 35.54388 35159 ft 481 kts 96°
2026-05-08 00:07 42.03610 35.63317 35159 ft 481 kts 96°
2026-05-08 00:08 42.02615 35.72227 35165 ft 481 kts 96°
2026-05-08 00:08 42.01613 35.81126 35161 ft 481 kts 96°
2026-05-08 00:09 42.00609 35.90009 35166 ft 479 kts 96°
2026-05-08 00:09 41.99595 35.98879 35163 ft 478 kts 96°
2026-05-08 00:10 41.98578 36.07728 35170 ft 478 kts 96°
2026-05-08 00:10 41.97554 36.16575 35169 ft 478 kts 96°
2026-05-08 00:11 41.96523 36.25419 35169 ft 478 kts 96°
2026-05-08 00:11 41.95485 36.34268 35174 ft 478 kts 96°
2026-05-08 00:12 41.94440 36.43112 35176 ft 478 kts 96°
2026-05-08 00:12 41.93388 36.51957 35176 ft 478 kts 97°
2026-05-08 00:13 41.92338 36.60725 35176 ft 478 kts 97°
2026-05-08 00:13 41.91272 36.69567 35187 ft 478 kts 97°
2026-05-08 00:14 41.90204 36.78374 35184 ft 477 kts 97°
2026-05-08 00:14 41.89128 36.87172 35180 ft 477 kts 97°
2026-05-08 00:15 41.88046 36.95967 35181 ft 477 kts 97°
2026-05-08 00:15 41.86957 37.04771 35184 ft 477 kts 97°
2026-05-08 00:16 41.85862 37.13554 35193 ft 477 kts 97°
2026-05-08 00:16 41.84759 37.22350 35183 ft 477 kts 97°
2026-05-08 00:17 41.83650 37.31140 35180 ft 477 kts 97°
2026-05-08 00:17 41.82534 37.39929 35185 ft 477 kts 97°
2026-05-08 00:18 41.81411 37.48714 35193 ft 478 kts 97°
2026-05-08 00:18 41.80281 37.57502 35193 ft 477 kts 97°
2026-05-08 00:19 41.79147 37.66260 35188 ft 476 kts 97°
2026-05-08 00:19 41.78008 37.75007 35190 ft 476 kts 97°
2026-05-08 00:20 41.77056 37.82277 35186 ft 476 kts 97°
2026-05-08 00:20 41.75903 37.91032 35188 ft 476 kts 98°
2026-05-08 00:21 41.74744 37.99775 35191 ft 476 kts 98°
2026-05-08 00:21 41.73576 38.08539 35188 ft 476 kts 98°
2026-05-08 00:22 41.72405 38.17272 35185 ft 476 kts 98°
2026-05-08 00:22 41.71224 38.26019 35187 ft 477 kts 98°
2026-05-08 00:23 41.70035 38.34779 35192 ft 477 kts 98°
2026-05-08 00:23 41.68841 38.43528 35194 ft 476 kts 98°
2026-05-08 00:24 41.67642 38.52258 35192 ft 476 kts 98°
2026-05-08 00:24 41.66438 38.60976 35185 ft 476 kts 98°
2026-05-08 00:25 41.65223 38.69715 35186 ft 476 kts 98°
2026-05-08 00:25 41.64004 38.78433 35191 ft 476 kts 98°
2026-05-08 00:26 41.62786 38.87100 35190 ft 477 kts 98°
2026-05-08 00:26 41.61552 38.95832 35196 ft 478 kts 98°
2026-05-08 00:27 41.60309 39.04567 35196 ft 478 kts 98°
2026-05-08 00:27 41.59061 39.13295 35196 ft 478 kts 98°
2026-05-08 00:28 41.57804 39.22035 35199 ft 478 kts 98°
2026-05-08 00:28 41.56542 39.30767 35201 ft 479 kts 99°
2026-05-08 00:29 41.55267 39.39527 35199 ft 480 kts 99°
2026-05-08 00:29 41.53985 39.48287 35198 ft 480 kts 99°
2026-05-08 00:30 41.52697 39.57045 35201 ft 480 kts 99°
2026-05-08 00:30 41.51403 39.65803 35208 ft 481 kts 99°
2026-05-08 00:31 41.50100 39.74564 35202 ft 481 kts 99°
2026-05-08 00:31 41.48787 39.83335 35201 ft 481 kts 99°
2026-05-08 00:32 41.47468 39.92103 35198 ft 481 kts 99°
2026-05-08 00:32 41.46145 40.00854 35198 ft 481 kts 99°
2026-05-08 00:33 41.44817 40.09598 35200 ft 480 kts 99°
2026-05-08 00:33 41.43481 40.18336 35199 ft 480 kts 99°
2026-05-08 00:34 41.42140 40.27059 35199 ft 480 kts 100°
2026-05-08 00:34 41.40796 40.35780 35200 ft 481 kts 100°
2026-05-08 00:35 41.39445 40.44469 35198 ft 481 kts 100°
2026-05-08 00:35 41.38080 40.53211 35196 ft 481 kts 100°
2026-05-08 00:36 41.36695 40.62029 35191 ft 481 kts 100°
2026-05-08 00:36 41.35330 40.70706 35194 ft 482 kts 101°
2026-05-08 00:37 41.33941 40.79463 35186 ft 483 kts 101°
2026-05-08 00:38 41.31843 40.92590 35189 ft 481 kts 101°
2026-05-08 00:38 41.30443 41.01306 35191 ft 481 kts 101°
2026-05-08 00:39 41.29036 41.10031 35183 ft 483 kts 101°
2026-05-08 00:39 41.27615 41.18784 35183 ft 483 kts 101°
2026-05-08 00:40 41.26188 41.27521 35184 ft 483 kts 101°
2026-05-08 00:40 41.24756 41.36256 35197 ft 483 kts 102°
2026-05-08 00:41 41.23315 41.45011 35196 ft 484 kts 102°
2026-05-08 00:41 41.21862 41.53778 35193 ft 485 kts 102°
2026-05-08 00:42 41.20405 41.62530 35200 ft 485 kts 102°
2026-05-08 00:42 41.18942 41.71283 35220 ft 484 kts 102°
2026-05-08 00:43 41.17473 41.80038 35218 ft 485 kts 102°
2026-05-08 00:43 41.15996 41.88766 35224 ft 485 kts 102°
2026-05-08 00:44 41.14510 41.97513 35228 ft 485 kts 102°
2026-05-08 00:44 41.13017 42.06268 35230 ft 486 kts 103°
2026-05-08 00:45 41.11527 42.14966 35238 ft 486 kts 103°
2026-05-08 00:45 41.10017 42.23726 35236 ft 486 kts 103°
2026-05-08 00:46 41.08490 42.32541 35239 ft 486 kts 103°
2026-05-08 00:46 41.06974 42.41263 35239 ft 487 kts 103°
2026-05-08 00:47 41.05444 42.50022 35247 ft 487 kts 103°
2026-05-08 00:47 41.03907 42.58776 35245 ft 487 kts 103°
2026-05-08 00:48 41.02362 42.67520 35247 ft 487 kts 103°
2026-05-08 00:48 41.00812 42.76274 35245 ft 488 kts 104°
2026-05-08 00:49 40.99249 42.85045 35247 ft 488 kts 104°
2026-05-08 00:49 40.97679 42.93811 35246 ft 488 kts 104°
2026-05-08 00:50 40.96102 43.02578 35243 ft 488 kts 104°
2026-05-08 00:50 40.94519 43.11365 35235 ft 490 kts 105°
2026-05-08 00:51 40.92919 43.20164 35233 ft 491 kts 105°
2026-05-08 00:51 40.91313 43.28959 35232 ft 491 kts 105°
2026-05-08 00:52 40.89704 43.37739 35222 ft 491 kts 105°
2026-05-08 00:52 40.88087 43.46520 35223 ft 491 kts 105°
2026-05-08 00:53 40.86464 43.55291 35220 ft 491 kts 105°
2026-05-08 00:53 40.84889 43.64088 35219 ft 491 kts 102°
2026-05-08 00:54 40.83899 43.73035 35222 ft 492 kts 96°
2026-05-08 00:54 40.83535 43.82104 35218 ft 495 kts 94°
2026-05-08 00:55 40.83252 43.91195 35212 ft 495 kts 94°
2026-05-08 00:55 40.82960 44.00217 35213 ft 494 kts 94°
2026-05-08 00:56 40.82648 44.09308 35213 ft 494 kts 94°
2026-05-08 00:56 40.82327 44.18386 35202 ft 494 kts 95°
2026-05-08 00:57 40.82003 44.27494 35205 ft 496 kts 95°
2026-05-08 00:57 40.81665 44.36595 35205 ft 496 kts 95°
2026-05-08 00:58 40.81321 44.45702 35205 ft 496 kts 95°
2026-05-08 00:58 40.80972 44.54811 35201 ft 496 kts 95°
2026-05-08 00:59 40.80616 44.63921 35191 ft 497 kts 96°
2026-05-08 00:59 40.80250 44.73070 35202 ft 498 kts 96°
2026-05-08 01:00 40.79875 44.82218 35197 ft 498 kts 96°
2026-05-08 01:00 40.79493 44.91374 35206 ft 498 kts 96°
2026-05-08 01:01 40.79169 44.99037 35193 ft 498 kts 96°
2026-05-08 01:01 40.78781 45.08134 35186 ft 500 kts 97°
2026-05-08 01:02 40.78375 45.17337 35192 ft 502 kts 97°
2026-05-08 01:02 40.77961 45.26534 35187 ft 502 kts 97°
2026-05-08 01:03 40.77541 45.35739 35186 ft 502 kts 97°
2026-05-08 01:03 40.77151 45.44948 35185 ft 503 kts 95°
2026-05-08 01:04 40.77341 45.54247 35170 ft 510 kts 89°
2026-05-08 01:04 40.78209 45.63584 35183 ft 513 kts 86°
2026-05-08 01:05 40.79197 45.72916 35169 ft 512 kts 86°
2026-05-08 01:05 40.80169 45.82251 35166 ft 513 kts 86°
2026-05-08 01:06 40.81122 45.91594 35164 ft 513 kts 86°
2026-05-08 01:06 40.82069 46.00975 35164 ft 513 kts 86°
2026-05-08 01:07 40.83007 46.10334 35156 ft 515 kts 86°
2026-05-08 01:07 40.83931 46.19665 35156 ft 515 kts 86°
2026-05-08 01:08 40.84856 46.29077 35152 ft 516 kts 87°
2026-05-08 01:08 40.85773 46.38501 35159 ft 517 kts 87°
2026-05-08 01:09 40.86683 46.47935 35158 ft 517 kts 87°
2026-05-08 01:09 40.87587 46.57376 35165 ft 517 kts 87°
2026-05-08 01:10 40.88483 46.66812 35135 ft 518 kts 88°
2026-05-08 01:10 40.89377 46.76321 35158 ft 521 kts 88°
2026-05-08 01:11 40.90575 46.85807 35170 ft 525 kts 81°
2026-05-08 01:11 40.92290 46.95135 35159 ft 525 kts 80°
2026-05-08 01:12 40.94063 47.04552 35163 ft 527 kts 80°
2026-05-08 01:12 40.95813 47.13982 35169 ft 527 kts 80°
2026-05-08 01:13 40.97548 47.23428 35172 ft 527 kts 80°
2026-05-08 01:13 40.99273 47.32881 35161 ft 527 kts 81°
2026-05-08 01:14 41.00989 47.42337 35150 ft 528 kts 81°
2026-05-08 01:14 41.02705 47.51830 35166 ft 529 kts 81°
2026-05-08 01:15 41.04413 47.61336 35164 ft 529 kts 81°
2026-05-08 01:15 41.06110 47.70833 35153 ft 529 kts 81°
2026-05-08 01:16 41.07799 47.80335 35166 ft 528 kts 81°
2026-05-08 01:16 41.09644 47.89780 35157 ft 530 kts 76°
2026-05-08 01:17 41.12366 47.98918 35149 ft 534 kts 66°
2026-05-08 01:17 41.16069 48.07520 35173 ft 537 kts 57°
2026-05-08 01:18 41.20459 48.15563 35165 ft 538 kts 54°
2026-05-08 01:18 41.24929 48.23538 35166 ft 538 kts 54°
2026-05-08 01:19 41.29360 48.31559 35163 ft 538 kts 54°
2026-05-08 01:19 41.33769 48.39608 35165 ft 538 kts 55°
2026-05-08 01:20 41.38171 48.47678 35149 ft 538 kts 55°
2026-05-08 01:20 41.42574 48.55762 35147 ft 538 kts 54°
2026-05-08 01:21 41.47046 48.63781 35139 ft 538 kts 54°
2026-05-08 01:21 41.51535 48.71791 35135 ft 539 kts 54°
2026-05-08 01:22 41.55803 48.79937 35112 ft 538 kts 57°
2026-05-08 01:22 41.59979 48.88267 35111 ft 538 kts 57°
2026-05-08 01:23 41.64146 48.96593 35111 ft 538 kts 57°
2026-05-08 01:23 41.68321 49.04931 35125 ft 538 kts 57°
2026-05-08 01:24 41.72486 49.13263 35122 ft 538 kts 57°
2026-05-08 01:24 41.76641 49.21604 35122 ft 537 kts 57°
2026-05-08 01:25 41.80794 49.29943 35104 ft 537 kts 56°
2026-05-08 01:25 41.85170 49.38088 35123 ft 537 kts 54°
2026-05-08 01:26 41.89614 49.46186 35114 ft 538 kts 54°
2026-05-08 01:26 41.94048 49.54303 35117 ft 538 kts 54°
2026-05-08 01:27 41.98465 49.62431 35132 ft 537 kts 54°
2026-05-08 01:27 42.02869 49.70569 35116 ft 537 kts 54°
2026-05-08 01:28 42.07261 49.78705 35116 ft 537 kts 54°
2026-05-08 01:28 42.11652 49.86862 35107 ft 537 kts 54°
2026-05-08 01:29 42.16041 49.95036 35102 ft 537 kts 54°
2026-05-08 01:29 42.20423 50.03219 35102 ft 537 kts 54°
2026-05-08 01:30 42.24769 50.11358 35113 ft 537 kts 54°
2026-05-08 01:30 42.29138 50.19562 35107 ft 537 kts 54°
2026-05-08 01:31 42.33502 50.27777 35107 ft 537 kts 54°
2026-05-08 01:31 42.37886 50.36058 35101 ft 537 kts 54°
2026-05-08 01:32 42.42234 50.44292 35103 ft 537 kts 54°
2026-05-08 01:32 42.46689 50.52347 35102 ft 537 kts 52°
2026-05-08 01:33 42.51318 50.60405 35094 ft 537 kts 52°
2026-05-08 01:33 42.55906 50.68413 35096 ft 537 kts 52°
2026-05-08 01:34 42.60481 50.76440 35096 ft 537 kts 52°
2026-05-08 01:34 42.65046 50.84485 35092 ft 537 kts 52°
2026-05-08 01:35 42.69578 50.92490 35093 ft 537 kts 52°
2026-05-08 01:35 42.74122 51.00536 35094 ft 537 kts 52°
2026-05-08 01:36 42.78697 51.08664 35083 ft 536 kts 52°